Погода в Шымкенте

Поиск расширенной информации на нашем сайте:

Полезная информация:

Новости сайта



02.01.2020
Опубликован Долгосрочный прогноз погоды по городам России и ближнего зарубежья на январь 2020 года.
Карты: Прогноз на январь и февраль 2020 года, Сравнение прогнозируемой аномалии приземной температуры воздуха на январь 2020 года по разным моделям.




Погода в Шымкенте - сегодня

Время (UTC), дата Ветер
(°,м/с) 
Видим.   Явления Облачность Т
(°С)
Тd
(°С)
f(%) Тe
(°С)
Pmin
(гПа)
dP
(гПа)
Po
(мм)
O2
(г/м3)
Тmin Tmax R s Состояние
почвы
18 24.01.20 230 (ЮЗ) н/о  в посл. час ливневой дождь  10/10 600 м кучево-дожд. 
[Cb cap]
+4.1 +4.1 100 +2  1019.7  2.3  711  281    +5.3     
21 24.01.20 220 (ЮЗ) н/о  слаб. ливневой дождь  10/10 600 м кучево-дожд. 
[Cb cap]
+3.4 +3.4 100 +2  1021  711  282           
00 25.01.20 210 (ЮЗ) н/о  дымка{ливн. осадки}  10/10 600 м кучево-дожд. 
[Cb cap]
+3.7 +3.7 100 +2  1020.7  -0.2  711  282           
03 25.01.20 220 (ЮЗ) 2000 м  слаб. ливневой дождь  10/10 600 м кучево-дожд. 
[Cb cap]
+3 +3 100 +2  1021.4  0.5  712  283      мокрый или
старый снег
50-90% 
06 25.01.20 210 (ЮЗ) 2000 м  дымка{ливн. осадки}  10/10 600 м 
[Sc]
+3.9 +3.9 100 +2  1021.8  0.6  712  282  +3       
09 25.01.20 260 (З) 2000 м  слаб. ливневой дождь  10/10 600 м кучево-дожд. 
[Cb cap]
+3.7 +3.7 100 +2  1021.9  0.1  712  282           
12 25.01.20 280 (З) 0500 м  слаб. ливневой дождь  ?/?  
+0.9 +0.9 100 1023  0.3  712  286           
15 25.01.20 260 (З) н/о  слаб. ливневой снег{туман}  10/10 600 м кучево-дожд. 
[Cb cap]
-1.7 -1.9 99 -1  1025.6  1.6  713  289    +4.2     
18 25.01.20 тихо ()   н/о  слаб. ливневой снег{туман}  10/10 600 м кучево-дожд. 
[Cb cap]
-2.4 -2.4 100 -2  1026.1  0.3  714  290    +4.2     
21 25.01.20 тихо ()   н/о  слаб. ливневой снег  10/10 600 м кучево-дожд. 
[Cb cap]
-3.4 -3.5 99 -3  1027.2  0.8  714  292           
00 26.01.20 тихо ()   н/о  слаб. ливневой снег  10/10 600 м кучево-дожд. 
[Cb cap]
-4.6 -4.9 98 -5  1028.2  0.6  715  293           
03 26.01.20 тихо ()   2000 м  слаб. снег{ливн. осадки}  10/10 600 м 
[Ns]
-4.6 -4.9 98 -5  1028.6  0.4  715  294      12  равномерный
сухой снег
100% 
06 26.01.20 270 (З) 2000 м  дымка{ливн. осадки, снег}  8/0 средняя 
[Ac As]
-0.1 -0.1 100 +1  1026.5  -0.7  715  288  -4.8       
09 26.01.20 250 (З) 20000 м    8/0 средняя 
[Ac trans]
+1.2 -1.9 80 +1  1025.3  -0.9  714  287           
12 26.01.20 тихо ()   2000 м  дымка  10/10 600 м 
[Sc]
-1.1 -1.3 99 -1  1025.2  -0.7  713  289           
15 26.01.20 тихо ()   н/о  дымка  10/10 600 м 
[Sc]
-1.3 -1.5 99 -1  1024.7  -0.5  713  289    +2.8  0.0     
18 26.01.20 210 (ЮЗ) н/о  дымка  10/10 600 м 
[Sc]
-1.1 -1.3 99 -2  1023.6  -1  712  288    +2.8  0.0     
21 26.01.20 190 (Ю) н/о  дымка  6/0 средняя 
[Ac trans]
-4.6 -4.9 98 -4  1023.8  -0.7  712  292           
00 27.01.20 тихо ()   н/о  дымка  10/8 600 м средняя 
[Sc|Ac trans]
-3.6 -3.8 99 -4  1022.6  -0.8  711  291           
03 27.01.20 тихо ()   2000 м  дымка  10/10 600 м кучево-дожд. 
[Cb cap]
-2.5 -2.5 100 -3  1022.2  -0.1  711  289        12  равномерный
сухой снег
100% 
06 27.01.20 230 (ЮЗ) 2000 м  слаб. ливневой снег  10/10 600 м кучево-дожд. 
[Cb cap]
+0.8 +0.8 100 -2  1022.3  712  286  -5.8         
09 27.01.20 220 (ЮЗ) 1000 м  ливневой снег  10/10 600 м кучево-дожд. 
[Cb cap]
+0 +0 100 -3  1023.2  0.6  712  287           
12 27.01.20 260 (З) 1000 м  ливневой снег  10/10 600 м кучево-дожд. 
[Cb cap]
-0.2 -0.5 98 -3  1025.5  714  288           
15 27.01.20 270 (З) н/о  слаб. ливневой снег  10/10 600 м кучево-дожд. 
[Cb cap]
-1.7 -1.9 99 -3  1029.4  3.3  716  291    +1.2     
18 27.01.20 250 (З) н/о  туман{ливн. осадки}  ?/?  
-1.8 -2 99 -3  1030.3  0.8  717  291    +1.2     
Время (UTC), дата Ветер
(°,м/с) 
Видим.   Явления Облачность Т
(°С)
Тd
(°С)
f(%) Тe
(°С)
Pmin
(гПа)
dP
(гПа)
Po
(мм)
O2
(г/м3)
Тmin Tmax R s Состояние
почвы

Для получения пояснительной информации подведите курсор к названию столбца.

ПОГОДА в Шымкенте - архив

Всё, что Вы хотите узнать о погоде в Шымкенте - удобно и подробно!

Выберите нужную дату (начиная с 1 января 2019* года) и нажмите кнопку "Найти".
Будут отображены архивные сводки погоды по пункту Шымкент, начиная с указанной даты.


Отображать данные в формате CSV (для использования в таблицах Excel)


Внимание! Наш архив погоды предназначен исключительно для личного некоммерческого использования в познавательных целях. Если Вам необходимы официальные справки о состоянии погоды (для производственных, юридических, коммерческих и т.п. целей), обращайтесь в органы Росгидромета.

*Примечание: данная дата относится к архиву по метеостанциям СССР (Россия, СНГ, Балтия).
Архив по метеостанциям Зарубежной Европы и Азии (кроме Китая) хранится 10 дней, по другим регионам земного шара (Китай, Африка, Америка, Австралия, Океания) - 1 день.

Шымкент - район местоположения метеостанции


Название, широта, долгота, высота метеостанции:
Шымкент (город) 42.3°ш. 69.7°д. 604 м над ур. моря [Казахстан]

Дополнительная информация

В oтличие oт бoльшинства пoгoдных сайтoв мы публикуем пoдрoбную метеoинфoрмацию в детальнoм прoфессиoнальнoм фoрмате.

Характеристики температуры и влажнoсти вoздуха измеряются на высoте 2 м в тени вдали oт зданий и деревьев.
Скoрoсть ветра измеряется на высoте 10 м (на урoвне рoста челoвека скoрoсть ветра ниже в 1.5-2 раза). Если метеoстанция нахoдится в гoрoде или в лесу, тo скoрoсть ветра занижена на 2-4 м/с пo сравнению с oткрытым местoм. Скoрoсть ветра над акватoриями крупных рек и oзёр, а также на вершинах хoлмoв на 2-5 м/с выше, чем в oбычных услoвиях.
Атмoсфернoе давление в разных тoчках местнoсти мoжет значительнo oтличаться oт давления на метеoстанции, в зависимoсти oт услoвий рельефа (при пoдъёме на 10 м давление пoнижается примернo на 1 мм рт.ст.).